Lovelock, NV

7:20 PM PST on December 09, 2016 (GMT -0800)
Derby

Weather History for KLOL - October, 2013

Change the Weather History Date:

Sunday, October 27, 2013

  Actual Average Record
Temperature  
Mean Temperature 47 °F -  
Max Temperature 75 °F 62 °F 79 °F (2008)
Min Temperature 21 °F 28 °F 13 °F (1970)
Degree Days  
Heating Degree Days 18    
Moisture  
Dew Point 15 °F    
Average Humidity 32    
Maximum Humidity 76    
Minimum Humidity 11    
Precipitation  
Precipitation 0.00 in - - ()
Sea Level Pressure  
Sea Level Pressure 29.78 in    
Wind  
Wind Speed 8 mph (West)    
Max Wind Speed 32 mph    
Max Gust Speed 40 mph    
Visibility 9 miles    
Events Rain    
Averages and records for this station are not official NWS values.
T = Trace of Precipitation, MM = Missing Value Source: NWS Daily Summary

Daily Weather History Graph

Daily Weather History Graph

Search for Another Location

Airport or City:

Trip Planner

Search our weather history database for the weather conditions in past years. The results will help you decide how hot, cold, wet, or windy it might be!

Date:

Astronomy

Oct. 27, 2013 Rise Set
Actual Time 7:18 AM PDT 5:57 PM PDT
Civil Twilight 6:50 AM PDT 6:25 PM PDT
Nautical Twilight 6:18 AM PDT 6:57 PM PDT
Astronomical Twilight 5:47 AM PDT 7:28 PM PDT
Moon 12:19 AM PDT (10/27) 2:09 PM PDT (10/27)
Length of Visible Light 11h 34m
Length of Day
10h 39m
Last Quarter, 42% of the Moon is Illuminated
Oct 27
Last Quarter
Nov 3
New
Nov 9
First Quarter
Nov 17
Full
Nov 25
Last Quarter

Hourly Weather History & Observations

Time (PDT) Temp. Windchill Dew Point Humidity Pressure Visibility Wind Dir Wind Speed Gust Speed Precip Events Conditions
12:53 AM 34.0 °F 31.0 °F 8.1 °F 34% 30.12 in 10.0 mi East 3.5 mph - N/A   Clear
1:53 AM 28.0 °F - 3.0 °F 34% 30.11 in 10.0 mi Calm Calm - N/A   Clear
2:53 AM 26.1 °F - 1.0 °F 34% 30.09 in 10.0 mi Calm Calm - N/A   Clear
3:53 AM 28.0 °F - 5.0 °F 38% 30.06 in 10.0 mi Calm Calm - N/A   Clear
4:53 AM 26.1 °F - 3.9 °F 39% 30.05 in 10.0 mi Calm Calm - N/A   Clear
5:53 AM 28.9 °F - 6.1 °F 38% 30.03 in 10.0 mi Calm Calm - N/A   Clear
6:53 AM 21.0 °F 14.6 °F 1.0 °F 42% 30.06 in 10.0 mi East 4.6 mph - N/A   Clear
7:53 AM 21.9 °F 17.2 °F -0.0 °F 38% 30.06 in 10.0 mi SW 3.5 mph - N/A   Clear
8:53 AM 36.0 °F - 9.0 °F 33% 30.03 in 10.0 mi Calm Calm - N/A   Clear
9:53 AM 46.9 °F - 12.0 °F 24% 29.99 in 10.0 mi Calm Calm - N/A   Clear
10:53 AM 57.0 °F - 16.0 °F 20% 29.91 in 10.0 mi Variable 3.5 mph - N/A   Clear
11:53 AM 62.1 °F - 17.1 °F 18% 29.84 in 10.0 mi SSW 6.9 mph - N/A   Clear
12:53 PM 68.0 °F - 17.1 °F 14% 29.75 in 10.0 mi SW 13.8 mph - N/A   Clear
1:53 PM 73.9 °F - 15.1 °F 11% 29.65 in 10.0 mi SW 19.6 mph 29.9 mph N/A   Clear
2:53 PM 73.9 °F - 15.1 °F 11% 29.59 in 8.0 mi SW 28.8 mph 36.8 mph N/A   Clear
3:53 PM 73.0 °F - 14.0 °F 11% 29.53 in 9.0 mi SW 31.1 mph 38.0 mph 0.00 in   Clear
4:53 PM 70.0 °F - 16.0 °F 13% 29.50 in 10.0 mi SW 32.2 mph 40.3 mph N/A   Clear
5:53 PM 64.9 °F - 17.1 °F 16% 29.50 in 10.0 mi SW 21.9 mph 34.5 mph N/A   Clear
6:53 PM 63.0 °F - 16.0 °F 16% 29.52 in 7.0 mi WSW 20.7 mph 29.9 mph N/A   Clear
7:43 PM 55.0 °F - 27.0 °F 34% 29.53 in 3.0 mi North 24.2 mph 38.0 mph N/A   Haze
7:53 PM 54.0 °F - 28.9 °F 38% 29.55 in 7.0 mi North 19.6 mph 33.4 mph N/A   Mostly Cloudy
8:53 PM 51.1 °F - 28.9 °F 43% 29.54 in 10.0 mi North 21.9 mph 29.9 mph N/A   Overcast
9:53 PM 48.0 °F - 32.0 °F 54% 29.50 in 10.0 mi North 16.1 mph 25.3 mph N/A   Overcast
10:53 PM 46.0 °F 41.0 °F 34.0 °F 63% 29.50 in 10.0 mi North 10.4 mph - 0.00 in   Overcast
11:53 PM 43.0 °F 37.2 °F 36.0 °F 76% 29.49 in 10.0 mi NW 10.4 mph - 0.00 in Rain Light Rain